{"data":{"norad_id":52612,"epoch":"2026-09-20T04:20:17.403072Z","epoch_age_seconds":90845,"freshness":"FRESH","line1":"1 52612U 22052Q   26263.18075698  .00000191  00000+0  16806-4 0  9995","line2":"2 52612  53.1598 116.8726 0001234  77.7353 282.3788 15.34384246240343","mean_motion":15.34384246,"eccentricity":0.0001234,"inclination_deg":53.1598,"raan_deg":116.8726,"arg_perigee_deg":77.7353,"mean_anomaly_deg":282.3788,"bstar":1.6806e-5,"rev_number":24034,"period_min":93.848721645438,"perigee_km":461.90589935194,"apogee_km":463.59423027954,"semimajor_km":6840.8870648157,"source":"CELESTRAK","updated_at":"2026-09-20T09:00:40.070434Z"}}